Time,TemperatureF,DewpointF,PressureIn,WindDirection,WindDirectionDegrees,WindSpeedMPH,WindSpeedGustMPH,Humidity,HourlyPrecipIn,Conditions,Clouds,dailyrainin,SoftwareType,DateUTC
2013-07-04 00:02:00,73.0,71.0,-100.00,SE,128,10.0,15.0,92,0.00,,,0.36,,2013-07-04 04:02:00,
2013-07-04 00:11:00,73.0,71.0,-100.00,SE,128,10.0,15.0,92,0.00,,,0.36,,2013-07-04 04:11:00,
2013-07-04 00:22:00,73.0,71.0,-100.00,SE,128,10.0,15.0,92,0.00,,,0.36,,2013-07-04 04:22:00,
2013-07-04 00:33:00,73.0,71.0,-100.00,SE,128,7.0,13.0,92,0.00,,,0.36,,2013-07-04 04:33:00,
2013-07-04 00:43:00,73.0,71.0,-100.00,SE,128,7.0,13.0,92,0.00,,,0.36,,2013-07-04 04:43:00,
2013-07-04 01:02:00,73.0,70.0,-100.00,SE,133,11.0,20.0,92,0.00,,,0.36,,2013-07-04 05:02:00,
2013-07-04 01:12:00,73.0,70.0,-100.00,SE,133,11.0,20.0,92,0.00,,,0.36,,2013-07-04 05:12:00,
2013-07-04 01:33:00,72.0,70.0,-100.00,SE,131,9.0,13.0,92,0.00,,,0.36,,2013-07-04 05:33:00,
2013-07-04 01:43:00,72.0,70.0,-100.00,SE,131,9.0,13.0,92,0.00,,,0.36,,2013-07-04 05:43:00,
2013-07-04 01:52:00,72.0,70.0,-100.00,SE,130,10.0,15.0,92,0.00,,,0.36,,2013-07-04 05:52:00,
2013-07-04 02:01:00,72.0,70.0,-100.00,SE,128,8.0,14.0,91,0.00,,,0.36,,2013-07-04 06:01:00,
2013-07-04 02:11:00,72.0,70.0,-100.00,SE,128,8.0,14.0,91,0.00,,,0.36,,2013-07-04 06:11:00,
2013-07-04 02:22:00,72.0,70.0,-100.00,SE,128,8.0,14.0,91,0.00,,,0.36,,2013-07-04 06:22:00,
2013-07-04 02:34:00,72.0,69.0,-100.00,SE,131,8.0,13.0,92,0.00,,,0.36,,2013-07-04 06:34:00,
2013-07-04 02:43:00,72.0,69.0,-100.00,SE,131,8.0,13.0,92,0.00,,,0.36,,2013-07-04 06:43:00,
2013-07-04 02:53:00,72.0,69.0,-100.00,SE,124,8.0,12.0,92,0.00,,,0.36,,2013-07-04 06:53:00,
2013-07-04 03:02:00,71.0,69.0,-100.00,SE,126,8.0,13.0,94,0.00,,,0.36,,2013-07-04 07:02:00,
2013-07-04 03:12:00,71.0,69.0,-100.00,SE,126,8.0,13.0,94,0.00,,,0.36,,2013-07-04 07:12:00,
2013-07-04 03:34:00,71.0,69.0,-100.00,SE,130,10.0,15.0,94,0.00,,,0.36,,2013-07-04 07:34:00,
2013-07-04 03:43:00,71.0,69.0,-100.00,SE,130,10.0,15.0,94,0.00,,,0.36,,2013-07-04 07:43:00,
2013-07-04 03:52:00,71.0,69.0,-100.00,SE,126,6.0,12.0,95,0.00,,,0.36,,2013-07-04 07:52:00,
2013-07-04 04:02:00,71.0,69.0,-100.00,SE,126,5.0,9.0,94,0.00,,,0.36,,2013-07-04 08:02:00,
2013-07-04 04:12:00,71.0,69.0,-100.00,SE,126,5.0,9.0,94,0.00,,,0.36,,2013-07-04 08:12:00,
2013-07-04 04:33:00,71.0,69.0,-100.00,SE,126,7.0,11.0,93,0.00,,,0.36,,2013-07-04 08:33:00,
2013-07-04 04:42:00,71.0,69.0,-100.00,SE,126,7.0,11.0,93,0.00,,,0.36,,2013-07-04 08:42:00,
2013-07-04 04:53:00,71.0,69.0,-100.00,ESE,123,7.0,14.0,93,0.00,,,0.36,,2013-07-04 08:53:00,
2013-07-04 05:02:00,71.0,69.0,-100.00,SE,124,5.0,9.0,93,0.00,,,0.36,,2013-07-04 09:02:00,
2013-07-04 05:11:00,71.0,69.0,-100.00,SE,124,5.0,9.0,93,0.00,,,0.36,,2013-07-04 09:11:00,
2013-07-04 05:42:00,71.0,69.0,-100.00,SE,128,10.0,15.0,93,0.00,,,0.36,,2013-07-04 09:42:00,
2013-07-04 06:01:00,71.0,69.0,-100.00,SE,133,12.0,17.0,94,0.00,,,0.36,,2013-07-04 10:01:00,
2013-07-04 06:11:00,71.0,69.0,-100.00,SE,133,12.0,17.0,94,0.00,,,0.36,,2013-07-04 10:11:00,
2013-07-04 06:22:00,71.0,69.0,-100.00,SE,131,11.0,16.0,94,0.00,,,0.36,,2013-07-04 10:22:00,
2013-07-04 06:34:00,71.0,69.0,-100.00,SE,138,7.0,11.0,94,0.00,,,0.36,,2013-07-04 10:34:00,
2013-07-04 06:43:00,71.0,69.0,-100.00,SE,138,7.0,11.0,94,0.00,,,0.36,,2013-07-04 10:43:00,
2013-07-04 06:53:00,71.0,69.0,-100.00,SE,133,8.0,12.0,93,0.00,,,0.36,,2013-07-04 10:53:00,
2013-07-04 07:02:00,71.0,69.0,-100.00,SE,133,6.0,13.0,93,0.00,,,0.36,,2013-07-04 11:02:00,
2013-07-04 07:12:00,71.0,69.0,-100.00,SE,133,6.0,13.0,93,0.00,,,0.36,,2013-07-04 11:12:00,
2013-07-04 07:34:00,71.0,69.0,-100.00,SE,133,7.0,11.0,92,0.00,,,0.30,,2013-07-04 11:34:00,
2013-07-04 07:43:00,71.0,69.0,-100.00,SE,133,7.0,11.0,92,0.00,,,0.30,,2013-07-04 11:43:00,
2013-07-04 08:02:00,71.0,69.0,-100.00,SE,126,7.0,11.0,92,0.00,,,0.25,,2013-07-04 12:02:00,
2013-07-04 08:12:00,72.0,69.0,-100.00,SE,128,7.0,11.0,92,0.00,,,0.22,,2013-07-04 12:12:00,
2013-07-04 08:33:00,72.0,69.0,-100.00,SE,128,7.0,13.0,91,0.00,,,0.22,,2013-07-04 12:33:00,
2013-07-04 08:43:00,72.0,69.0,-100.00,SE,128,7.0,13.0,91,0.00,,,0.22,,2013-07-04 12:43:00,
2013-07-04 08:52:00,72.0,69.0,-100.00,SE,127,7.0,11.0,90,0.00,,,0.22,,2013-07-04 12:52:00,
2013-07-04 09:12:00,73.0,70.0,-100.00,SE,134,8.0,11.0,89,0.00,,,0.22,,2013-07-04 13:12:00,
2013-07-04 09:33:00,74.0,70.0,-100.00,SSE,150,6.0,9.0,87,0.00,,,0.20,,2013-07-04 13:33:00,
2013-07-04 09:43:00,74.0,70.0,-100.00,SSE,150,6.0,9.0,87,0.00,,,0.20,,2013-07-04 13:43:00,
2013-07-04 10:02:00,75.0,70.0,-100.00,SE,141,9.0,13.0,85,0.00,,,0.09,,2013-07-04 14:02:00,
2013-07-04 10:12:00,75.0,70.0,-100.00,SE,141,9.0,13.0,85,0.00,,,0.09,,2013-07-04 14:12:00,
2013-07-04 10:43:00,76.0,70.0,-100.00,SE,138,8.0,11.0,81,0.00,,,0.04,,2013-07-04 14:43:00,
2013-07-04 11:02:00,78.0,71.0,-100.00,SE,143,7.0,11.0,77,0.00,,,0.02,,2013-07-04 15:02:00,
2013-07-04 11:11:00,78.0,71.0,-100.00,SE,143,7.0,11.0,77,0.00,,,0.02,,2013-07-04 15:11:00,
2013-07-04 11:33:00,79.0,71.0,-100.00,SE,137,7.0,12.0,76,0.00,,,0.02,,2013-07-04 15:33:00,
2013-07-04 11:43:00,79.0,71.0,-100.00,SE,137,7.0,12.0,76,0.00,,,0.02,,2013-07-04 15:43:00,
2013-07-04 11:53:00,79.0,72.0,-100.00,SE,140,9.0,13.0,78,0.00,,,0.02,,2013-07-04 15:53:00,
2013-07-04 12:02:00,80.0,71.0,-100.00,SE,140,7.0,12.0,73,0.00,,,0.01,,2013-07-04 16:02:00,
2013-07-04 12:11:00,80.0,71.0,-100.00,SE,140,7.0,12.0,73,0.00,,,0.01,,2013-07-04 16:11:00,
2013-07-04 12:33:00,81.0,71.0,-100.00,SE,138,9.0,15.0,74,0.00,,,0.01,,2013-07-04 16:33:00,
2013-07-04 12:43:00,81.0,71.0,-100.00,SE,138,9.0,15.0,74,0.00,,,0.01,,2013-07-04 16:43:00,
2013-07-04 12:52:00,81.0,71.0,-100.00,SE,143,10.0,16.0,70,0.00,,,0.01,,2013-07-04 16:52:00,
2013-07-04 13:02:00,80.0,71.0,-100.00,SE,141,9.0,15.0,73,0.00,,,0.01,,2013-07-04 17:02:00,
2013-07-04 13:12:00,80.0,71.0,-100.00,SE,141,9.0,15.0,73,0.00,,,0.01,,2013-07-04 17:12:00,
2013-07-04 13:34:00,81.0,69.0,-100.00,SSE,147,8.0,14.0,68,0.00,,,0.01,,2013-07-04 17:34:00,
2013-07-04 13:43:00,81.0,69.0,-100.00,SSE,147,8.0,14.0,68,0.00,,,0.01,,2013-07-04 17:43:00,
2013-07-04 13:53:00,81.0,71.0,-100.00,SE,143,10.0,16.0,70,0.00,,,0.01,,2013-07-04 17:53:00,
2013-07-04 14:01:00,81.0,71.0,-100.00,SE,138,11.0,19.0,71,0.00,,,0.01,,2013-07-04 18:01:00,
2013-07-04 14:11:00,81.0,71.0,-100.00,SE,138,11.0,19.0,71,0.00,,,0.01,,2013-07-04 18:11:00,
2013-07-04 14:33:00,83.0,71.0,-100.00,SE,141,9.0,16.0,67,0.00,,,0.01,,2013-07-04 18:33:00,
2013-07-04 14:43:00,83.0,71.0,-100.00,SE,141,9.0,16.0,67,0.00,,,0.01,,2013-07-04 18:43:00,
2013-07-04 14:52:00,84.0,71.0,-100.00,SE,141,10.0,19.0,65,0.00,,,0.01,,2013-07-04 18:52:00,
2013-07-04 15:02:00,83.0,72.0,-100.00,SSE,150,10.0,20.0,69,0.00,,,0.01,,2013-07-04 19:02:00,
2013-07-04 15:12:00,83.0,72.0,-100.00,SSE,150,10.0,20.0,69,0.00,,,0.01,,2013-07-04 19:12:00,
2013-07-04 15:34:00,83.0,71.0,-100.00,SE,143,10.0,19.0,67,0.00,,,0.01,,2013-07-04 19:34:00,
2013-07-04 15:43:00,82.0,70.0,-100.00,SE,145,12.0,18.0,67,0.00,,,0.01,,2013-07-04 19:43:00,
2013-07-04 15:53:00,82.0,70.0,-100.00,SE,145,12.0,18.0,67,0.00,,,0.01,,2013-07-04 19:53:00,
2013-07-04 16:02:00,83.0,71.0,-100.00,SE,140,10.0,18.0,68,0.00,,,0.01,,2013-07-04 20:02:00,
2013-07-04 16:11:00,83.0,71.0,-100.00,SE,140,10.0,18.0,68,0.00,,,0.01,,2013-07-04 20:11:00,
2013-07-04 16:34:00,82.0,70.0,-100.00,SE,144,11.0,18.0,69,0.00,,,0.01,,2013-07-04 20:34:00,
2013-07-04 16:42:00,82.0,70.0,-100.00,SE,144,11.0,18.0,69,0.00,,,0.01,,2013-07-04 20:42:00,
2013-07-04 16:53:00,83.0,70.0,-100.00,SE,144,10.0,15.0,64,0.00,,,0.01,,2013-07-04 20:53:00,
2013-07-04 17:01:00,84.0,72.0,-100.00,SE,143,11.0,17.0,67,0.00,,,0.01,,2013-07-04 21:01:00,
2013-07-04 17:12:00,84.0,72.0,-100.00,SE,143,11.0,17.0,67,0.00,,,0.01,,2013-07-04 21:12:00,
2013-07-04 17:32:00,84.0,71.0,-100.00,SE,141,9.0,21.0,65,0.00,,,0.01,,2013-07-04 21:32:00,
2013-07-04 17:43:00,84.0,71.0,-100.00,SE,141,9.0,21.0,65,0.00,,,0.01,,2013-07-04 21:43:00,
2013-07-04 17:53:00,84.0,71.0,-100.00,SE,141,9.0,21.0,65,0.00,,,0.01,,2013-07-04 21:53:00,
2013-07-04 18:02:00,83.0,72.0,-100.00,SE,144,10.0,15.0,69,0.00,,,0.01,,2013-07-04 22:02:00,
2013-07-04 18:12:00,83.0,72.0,-100.00,SE,144,10.0,15.0,69,0.00,,,0.01,,2013-07-04 22:12:00,
2013-07-04 18:33:00,84.0,70.0,-100.00,SSE,147,9.0,15.0,63,0.00,,,0.01,,2013-07-04 22:33:00,
2013-07-04 18:43:00,84.0,70.0,-100.00,SSE,147,9.0,15.0,63,0.00,,,0.01,,2013-07-04 22:43:00,
2013-07-04 18:52:00,82.0,71.0,-100.00,SE,138,11.0,17.0,68,0.00,,,0.01,,2013-07-04 22:52:00,
2013-07-04 19:02:00,82.0,70.0,-100.00,SE,130,7.0,12.0,67,0.00,,,0.01,,2013-07-04 23:02:00,
2013-07-04 19:12:00,82.0,70.0,-100.00,SE,130,7.0,12.0,67,0.00,,,0.01,,2013-07-04 23:12:00,
2013-07-04 19:33:00,82.0,69.0,-100.00,SE,143,9.0,15.0,65,0.00,,,0.01,,2013-07-04 23:33:00,
2013-07-04 19:43:00,82.0,69.0,-100.00,SE,143,9.0,15.0,65,0.00,,,0.01,,2013-07-04 23:43:00,
2013-07-04 19:52:00,81.0,69.0,-100.00,SE,138,10.0,16.0,65,0.00,,,0.01,,2013-07-04 23:52:00,
2013-07-04 20:01:00,81.0,69.0,-100.00,SE,133,9.0,14.0,67,0.00,,,0.00,,2013-07-05 00:01:00,
2013-07-04 20:12:00,81.0,69.0,-100.00,SE,133,9.0,14.0,67,0.00,,,0.00,,2013-07-05 00:12:00,
2013-07-04 20:32:00,78.0,69.0,-100.00,SE,141,5.0,10.0,74,0.00,,,0.00,,2013-07-05 00:32:00,
2013-07-04 20:43:00,78.0,69.0,-100.00,SE,141,5.0,10.0,74,0.00,,,0.00,,2013-07-05 00:43:00,
2013-07-04 20:52:00,78.0,69.0,-100.00,SE,134,6.0,10.0,74,0.00,,,0.00,,2013-07-05 00:52:00,
2013-07-04 21:01:00,78.0,69.0,-100.00,SE,130,5.0,10.0,74,0.00,,,0.00,,2013-07-05 01:01:00,
2013-07-04 21:11:00,78.0,69.0,-100.00,SE,130,5.0,10.0,74,0.00,,,0.00,,2013-07-05 01:11:00,
2013-07-04 21:32:00,77.0,69.0,-100.00,SE,131,6.0,10.0,77,0.00,,,0.00,,2013-07-05 01:32:00,
2013-07-04 21:42:00,77.0,69.0,-100.00,SE,131,6.0,10.0,77,0.00,,,0.00,,2013-07-05 01:42:00,
2013-07-04 21:52:00,77.0,69.0,-100.00,SE,133,7.0,12.0,77,0.00,,,0.00,,2013-07-05 01:52:00,
2013-07-04 22:02:00,77.0,69.0,-100.00,SE,133,7.0,12.0,77,0.00,,,0.00,,2013-07-05 02:02:00,
2013-07-04 22:32:00,77.0,69.0,-100.00,SE,127,6.0,11.0,77,0.00,,,0.00,,2013-07-05 02:32:00,
2013-07-04 22:42:00,77.0,69.0,-100.00,SE,127,6.0,11.0,77,0.00,,,0.00,,2013-07-05 02:42:00,
2013-07-04 22:53:00,77.0,69.0,-100.00,SE,126,6.0,10.0,77,0.00,,,0.00,,2013-07-05 02:53:00,
2013-07-04 23:02:00,76.0,69.0,-100.00,ESE,121,6.0,10.0,78,0.00,,,0.00,,2013-07-05 03:02:00,
2013-07-04 23:11:00,76.0,69.0,-100.00,ESE,121,6.0,10.0,78,0.00,,,0.00,,2013-07-05 03:11:00,
2013-07-04 23:33:00,76.0,69.0,-100.00,SE,130,8.0,13.0,80,0.00,,,0.00,,2013-07-05 03:33:00,
2013-07-04 23:42:00,76.0,69.0,-100.00,SE,130,8.0,13.0,80,0.00,,,0.00,,2013-07-05 03:42:00,
2013-07-04 23:52:00,76.0,69.0,-100.00,SE,130,7.0,10.0,81,0.00,,,0.00,,2013-07-05 03:52:00,